Regional Weather Roundup
Issued by NWS

Home | Current Version | Previous Version | Graphics & Text | Print | Product List | Glossary On
Versions: 1 2 3 4 5 6 7 8 9 10 11 12 13 14 15 16 17 18 19 20 21 22 23 24 25 26 27 28 29 30 31 32 33 34 35 36 37 38 39 40 41 42 43 44 45 46 47 48 49 50
000
ASUS45 KCYS 281710
RWRWY

WYOMING REGIONAL WEATHER ROUNDUP
NATIONAL WEATHER SERVICE CHEYENNE WY
1100 AM MDT THU MAY 28 2015

NOTE:  "FAIR" INDICATES FEW OR NO CLOUDS BELOW 12,000 FEET
WITH NO SIGNIFICANT WEATHER AND/OR OBSTRUCTIONS TO VISIBILITY.

WYZ001-281800-
YELLOWSTONE NATIONAL PARK

CITY           SKY/WX    TMP DP  RH WIND       PRES   REMARKS
LK YELLOWSTONE   N/A     36  34  92 CALM      30.21
W YELLOWSTONE  NOT AVBL

$$
WYZ002>013-054>058-071-098>099-281800-
NORTHERN WYOMING

CITY           SKY/WX    TMP DP  RH WIND       PRES   REMARKS
JACKSON        PTSUNNY   46  43  87 SW7       30.16
CODY           PTSUNNY   54  43  66 N8        30.09S
GREYBULL       CLOUDY    60  46  59 NW25      30.03S
WORLAND        LGT RAIN  58  47  66 NW12      30.04S
SHERIDAN       PTSUNNY   58  50  75 NW8       30.04S
BUFFALO          N/A     54  46  74 N14G23    30.07R
GILLETTE       CLOUDY    61  50  67 N7        30.02R
HULETT         CLOUDY    61  54  77 NW6       30.01F
NEWCASTLE      FAIR      63  48  59 NW8       30.01R

$$
WYZ014>020-022>026-101>103-281800-
CENTRAL WYOMING

CITY           SKY/WX    TMP DP  RH WIND       PRES   REMARKS
BIG PINEY      PTSUNNY   50  34  54 CALM      30.18S
PINEDALE       CLOUDY    45  39  81 NW16      30.19R
DUBOIS         FAIR      52  34  50 NW6       30.12F
LANDER         CLOUDY    58  40  51 CALM      30.06S
RIVERTON       PTSUNNY   59  43  55 VRB3      30.07S
CASPER         FAIR      63  45  51 SW12      30.05S
DOUGLAS        FAIR      64  49  57 NW9       30.03F

$$
WYZ021-027>030-104>119-281800-
SOUTHERN WYOMING

CITY           SKY/WX    TMP DP  RH WIND       PRES   REMARKS
EVANSTON       FAIR      52  43  71 W14       30.19F
KEMMERER       PTSUNNY   54  37  54 SW8       30.18F
FORT BRIDGER   SUNNY     52  43  71 SW17      30.22F
ROCK SPRINGS   FAIR      53  40  61 W17       30.18R
RAWLINS        PTSUNNY   56  41  57 SW14      30.15F
SARATOGA       PTSUNNY   52  43  71 W13G18    30.19R
LARAMIE        CLOUDY    55  37  50 NW15      30.13F
CHEYENNE       PTSUNNY   63  38  39 W16G23    30.08R
TORRINGTON     FAIR      70  46  42 W13       29.99S
PINE BLUFFS    FAIR      68  43  40 W3        30.05S

$$


USA.gov is the U.S. government's official web portal to all federal, state and local government web resources and services.